Home > Weather > Stephenville > Past weeks

Flag for Canada Weather for the Past 2 Weeks in Stephenville, Newfoundland and Labrador, Canada

Now
30 °F

Overcast.


Feels Like: 21 °F
Forecast: 27 / 31 °F
Wind: 10 mph from Northeast

Location: Stephenville

Current Time: Feb 10, 2016 at 5:51:53 AM

Latest Report: Feb 10, 2016 at 4:30 AM


Visibility: 15 mi

Pressure: 29.21 "Hg

Humidity: 80%

Dew point: 25 °F

Location of StephenvilleLocation

Historic Weather in Stephenville — Graph

°F

Stephenville Temperature Yesterday

Maximum temperature yesterday: 28 °F (at 3:30 PM)
Minimum temperature yesterday: 14 °F (at 3:30 AM)
Average temperature yesterday: 23 °F

High & Low Weather Summary for the Past Weeks

 TemperatureHumidityPressure
High43 °F (Feb 1, 3:30 PM)100% (Jan 27, 2:30 AM)30.43 "Hg (Jan 27, 2:30 AM)
Low7 °F (Feb 8, 8:30 AM)63% (Jan 30, 12:30 PM)28.99 "Hg (Jan 30, 1:30 AM)
Average27 °F81%29.84 "Hg
* Reported Jan 26 4:30 AM — Feb 10 4:30 AM, Stephenville, Weather by CustomWeather, © 2016

Note: Actual official high and low records may vary slightly from our data, if they occured in-between our weather recording intervals... More about our weather records

Advertising

Stephenville Weather History for the Previous 24 Hours

 ConditionsComfort  
Time TempWeatherWind HumidityBarometerVisibility
4:30 AM
Wed, Feb 10
30 °FOvercast.10 mph80%29.21 "Hg15 mi
3:30 AM30 °FPassing clouds.12 mph80%29.26 "Hg15 mi
2:30 AM28 °FPassing clouds.13 mph86%29.31 "Hg15 mi
1:30 AM28 °FPassing clouds.15 mph80%29.34 "Hg15 mi
12:30 AM28 °FPassing clouds.16 mph80%29.39 "Hg15 mi
11:30 PM
Tue, Feb 9
28 °FPassing clouds.21 mph80%29.41 "Hg15 mi
10:30 PM28 °FPassing clouds.21 mph74%29.43 "Hg15 mi
9:30 PM28 °FPassing clouds.20 mph80%29.47 "Hg15 mi
8:30 PM28 °FPassing clouds.23 mph74%29.48 "Hg12 mi
7:30 PM28 °FLight snow. Overcast.23 mph80%29.51 "Hg2 mi
6:30 PM28 °FLight snow. Overcast.16 mph74%29.49 "Hg10 mi
5:30 PM28 °FLight snow. Overcast.16 mph74%29.47 "Hg10 mi
4:30 PM28 °FLight snow. Low clouds.16 mph80%29.45 "Hg2 mi
3:30 PM28 °FLight snow. Low clouds.22 mph86%29.42 "Hg1 mi
2:30 PM27 °FLight snow. Ice fog.21 mph93%29.41 "Hg1 mi
1:30 PM27 °FLight snow. Ice fog.28 mph86%29.40 "Hg1 mi
12:30 PM27 °FLight snow. Ice fog.30 mph86%29.41 "Hg0 mi
11:30 AM25 °FLight snow. Ice fog.30 mph86%29.46 "Hg0 mi
10:30 AM23 °FLight snow. Ice fog.31 mph93%29.48 "Hg0 mi
9:30 AM21 °FLight snow. Ice fog.30 mph86%29.53 "Hg1 mi
8:30 AM19 °FLight snow. Ice fog.35 mph86%29.58 "Hg1 mi
7:30 AM18 °FLight snow. Ice fog.29 mph86%29.62 "Hg1 mi
6:30 AM18 °FLight snow. Ice fog.26 mph73%29.66 "Hg1 mi
5:30 AM18 °FMostly cloudy.21 mph68%29.70 "Hg12 mi
Weather by CustomWeather, © 2016

See weather overviewHow to use our weather pages